owner,sensor,date,latitude,longitude,vertical_datum,mass_concentration_of_oxygen_in_sea_water,qcFlag 
SCCF RECON,ioos:station:SCCF:53:1,2008-07-01T00:00:00Z,26.6493,-81.8810,2.11,4.5,1111122 
SCCF RECON,ioos:station:SCCF:53:1,2008-07-01T01:00:00Z,26.6493,-81.8810,2.07,4.44,1111122 
SCCF RECON,ioos:station:SCCF:53:1,2008-07-01T02:00:00Z,26.6493,-81.8810,2.039,4.28,1111122 
SCCF RECON,ioos:station:SCCF:53:1,2008-07-01T03:00:00Z,26.6493,-81.8810,2.01,4.8,1111122 
SCCF RECON,ioos:station:SCCF:53:1,2008-07-01T04:00:00Z,26.6493,-81.8810,2.019,4.28,1111122 
SCCF RECON,ioos:station:SCCF:53:1,2008-07-01T05:00:00Z,26.6493,-81.8810,2.05,4.26,1111122 
SCCF RECON,ioos:station:SCCF:53:1,2008-07-01T06:00:00Z,26.6493,-81.8810,2.085,4.42,1111122 
SCCF RECON,ioos:station:SCCF:53:1,2008-07-01T07:00:00Z,26.6493,-81.8810,2.12,3.88,1111122 
SCCF RECON,ioos:station:SCCF:53:1,2008-07-01T08:00:00Z,26.6493,-81.8810,2.15,4.3,1111122 
SCCF RECON,ioos:station:SCCF:53:1,2008-07-01T09:00:00Z,26.6493,-81.8810,2.15,4.39,1111122 
SCCF RECON,ioos:station:SCCF:53:1,2008-07-01T10:00:00Z,26.6493,-81.8810,2.122,4.59,1111122 
SCCF RECON,ioos:station:SCCF:53:1,2008-07-01T11:00:00Z,26.6493,-81.8810,2.1,4.01,1111122 
SCCF RECON,ioos:station:SCCF:53:1,2008-07-01T12:00:00Z,26.6493,-81.8810,2.1,3.63,1111122 
SCCF RECON,ioos:station:SCCF:53:1,2008-07-01T13:00:00Z,26.6493,-81.8810,2.16,4.33,1111122 
SCCF RECON,ioos:station:SCCF:53:1,2008-07-01T14:00:00Z,26.6493,-81.8810,2.22,4.39,1111122 
SCCF RECON,ioos:station:SCCF:53:1,2008-07-01T15:00:00Z,26.6493,-81.8810,2.28,4.71,1111122 
SCCF RECON,ioos:station:SCCF:53:1,2008-07-01T16:00:00Z,26.6493,-81.8810,2.35,4.89,1111122 
SCCF RECON,ioos:station:SCCF:53:1,2008-07-01T17:00:00Z,26.6493,-81.8810,2.41,4.88,1111122 
SCCF RECON,ioos:station:SCCF:53:1,2008-07-01T18:00:00Z,26.6493,-81.8810,2.45,5.1,1111122 
SCCF RECON,ioos:station:SCCF:53:1,2008-07-01T19:00:00Z,26.6493,-81.8810,2.458,5.33,1111122 
SCCF RECON,ioos:station:SCCF:53:1,2008-07-01T20:00:00Z,26.6493,-81.8810,2.41,4.45,1111122 
SCCF RECON,ioos:station:SCCF:53:1,2008-07-01T21:00:00Z,26.6493,-81.8810,2.35,5.98,1111122 
SCCF RECON,ioos:station:SCCF:53:1,2008-07-01T22:00:00Z,26.6493,-81.8810,2.302,6.22,1111122 
SCCF RECON,ioos:station:SCCF:53:1,2008-07-01T23:00:00Z,26.6493,-81.8810,2.241,6.33,1111122 
SCCF RECON,ioos:station:SCCF:53:1,2008-07-02T00:00:00Z,26.6493,-81.8810,2.181,6.15,1111122 
SCCF RECON,ioos:station:SCCF:53:1,2008-07-02T01:00:00Z,26.6493,-81.8810,2.12,6.33,1111122 
SCCF RECON,ioos:station:SCCF:53:1,2008-07-02T02:00:00Z,26.6493,-81.8810,2.07,5.83,1111122 
SCCF RECON,ioos:station:SCCF:53:1,2008-07-02T03:00:00Z,26.6493,-81.8810,2.02,5.31,1111122 
SCCF RECON,ioos:station:SCCF:53:1,2008-07-02T04:00:00Z,26.6493,-81.8810,2.0,4.84,1111122 
SCCF RECON,ioos:station:SCCF:53:1,2008-07-02T05:00:00Z,26.6493,-81.8810,2.0,5.03,1111122 
SCCF RECON,ioos:station:SCCF:53:1,2008-07-02T06:00:00Z,26.6493,-81.8810,2.04,4.54,1111122 
SCCF RECON,ioos:station:SCCF:53:1,2008-07-02T07:00:00Z,26.6493,-81.8810,2.08,4.42,1111122 
SCCF RECON,ioos:station:SCCF:53:1,2008-07-02T08:00:00Z,26.6493,-81.8810,2.11,4.42,1111122 
SCCF RECON,ioos:station:SCCF:53:1,2008-07-02T09:00:00Z,26.6493,-81.8810,2.15,4.46,1111122 
SCCF RECON,ioos:station:SCCF:53:1,2008-07-02T10:00:00Z,26.6493,-81.8810,2.18,4.46,1111122 
SCCF RECON,ioos:station:SCCF:53:1,2008-07-02T11:00:00Z,26.6493,-81.8810,2.19,4.24,1111122 
SCCF RECON,ioos:station:SCCF:53:1,2008-07-02T12:00:00Z,26.6493,-81.8810,2.188,4.09,1111122 
SCCF RECON,ioos:station:SCCF:53:1,2008-07-02T13:00:00Z,26.6493,-81.8810,2.18,4.52,1111122 
SCCF RECON,ioos:station:SCCF:53:1,2008-07-02T14:00:00Z,26.6493,-81.8810,2.21,3.69,1111122 
SCCF RECON,ioos:station:SCCF:53:1,2008-07-02T15:00:00Z,26.6493,-81.8810,2.28,4.16,1111122 
SCCF RECON,ioos:station:SCCF:53:1,2008-07-02T16:00:00Z,26.6493,-81.8810,2.33,4.29,1111122 
SCCF RECON,ioos:station:SCCF:53:1,2008-07-02T17:00:00Z,26.6493,-81.8810,2.389,4.6,1111122 
SCCF RECON,ioos:station:SCCF:53:1,2008-07-02T18:00:00Z,26.6493,-81.8810,2.45,4.62,1111122 
SCCF RECON,ioos:station:SCCF:53:1,2008-07-02T19:00:00Z,26.6493,-81.8810,2.51,4.7,1111122 
SCCF RECON,ioos:station:SCCF:53:1,2008-07-02T20:00:00Z,26.6493,-81.8810,2.481,4.96,1111122 
SCCF RECON,ioos:station:SCCF:53:1,2008-07-02T21:00:00Z,26.6493,-81.8810,2.42,4.74,1111122 
SCCF RECON,ioos:station:SCCF:53:1,2008-07-02T22:00:00Z,26.6493,-81.8810,2.377,4.53,1111122 
SCCF RECON,ioos:station:SCCF:53:1,2008-07-02T23:00:00Z,26.6493,-81.8810,2.3,4.31,1111122 
SCCF RECON,ioos:station:SCCF:53:1,2008-07-03T00:00:00Z,26.6493,-81.8810,2.24,4.41,1111122 
SCCF RECON,ioos:station:SCCF:53:1,2008-07-03T01:00:00Z,26.6493,-81.8810,2.18,4.39,1111122 
SCCF RECON,ioos:station:SCCF:53:1,2008-07-03T02:00:00Z,26.6493,-81.8810,2.12,4.07,1111122 
SCCF RECON,ioos:station:SCCF:53:1,2008-07-03T03:00:00Z,26.6493,-81.8810,2.07,3.93,1111122 
SCCF RECON,ioos:station:SCCF:53:1,2008-07-03T04:00:00Z,26.6493,-81.8810,2.02,3.66,1111122 
SCCF RECON,ioos:station:SCCF:53:1,2008-07-03T05:00:00Z,26.6493,-81.8810,1.99,3.58,1111122 
SCCF RECON,ioos:station:SCCF:53:1,2008-07-03T06:00:00Z,26.6493,-81.8810,1.99,3.54,1111122 
SCCF RECON,ioos:station:SCCF:53:1,2008-07-03T07:00:00Z,26.6493,-81.8810,2.04,3.37,1111122 
SCCF RECON,ioos:station:SCCF:53:1,2008-07-03T08:00:00Z,26.6493,-81.8810,2.079,3.85,1111122 
SCCF RECON,ioos:station:SCCF:53:1,2008-07-03T09:00:00Z,26.6493,-81.8810,2.11,3.67,1111122 
SCCF RECON,ioos:station:SCCF:53:1,2008-07-03T10:00:00Z,26.6493,-81.8810,2.15,3.62,1111122 
SCCF RECON,ioos:station:SCCF:53:1,2008-07-03T11:00:00Z,26.6493,-81.8810,2.14,3.37,1111122 
SCCF RECON,ioos:station:SCCF:53:1,2008-07-03T12:00:00Z,26.6493,-81.8810,2.114,3.31,1111122 
SCCF RECON,ioos:station:SCCF:53:1,2008-07-03T13:00:00Z,26.6493,-81.8810,2.109,3.11,1111122 
SCCF RECON,ioos:station:SCCF:53:1,2008-07-03T14:00:00Z,26.6493,-81.8810,2.13,3.09,1111122 
SCCF RECON,ioos:station:SCCF:53:1,2008-07-03T15:00:00Z,26.6493,-81.8810,2.17,3.18,1111122 
SCCF RECON,ioos:station:SCCF:53:1,2008-07-03T16:00:00Z,26.6493,-81.8810,2.232,4.54,1111122 
SCCF RECON,ioos:station:SCCF:53:1,2008-07-03T17:00:00Z,26.6493,-81.8810,2.295,4.1,1111122 
SCCF RECON,ioos:station:SCCF:53:1,2008-07-03T18:00:00Z,26.6493,-81.8810,2.379,3.62,1111122 
SCCF RECON,ioos:station:SCCF:53:1,2008-07-03T19:00:00Z,26.6493,-81.8810,2.421,4.28,1111122 
SCCF RECON,ioos:station:SCCF:53:1,2008-07-03T20:00:00Z,26.6493,-81.8810,2.49,5.55,1111122 
SCCF RECON,ioos:station:SCCF:53:1,2008-07-03T21:00:00Z,26.6493,-81.8810,2.47,4.7,1111122 
SCCF RECON,ioos:station:SCCF:53:1,2008-07-03T22:00:00Z,26.6493,-81.8810,2.412,4.19,1111122 
SCCF RECON,ioos:station:SCCF:53:1,2008-07-03T23:00:00Z,26.6493,-81.8810,2.36,4.21,1111122 
SCCF RECON,ioos:station:SCCF:53:1,2008-07-04T00:00:00Z,26.6493,-81.8810,2.29,3.93,1111122 
SCCF RECON,ioos:station:SCCF:53:1,2008-07-04T01:00:00Z,26.6493,-81.8810,2.24,3.91,1111122 
SCCF RECON,ioos:station:SCCF:53:1,2008-07-04T02:00:00Z,26.6493,-81.8810,2.18,3.85,1111122 
SCCF RECON,ioos:station:SCCF:53:1,2008-07-04T03:00:00Z,26.6493,-81.8810,2.12,4.0,1111122 
SCCF RECON,ioos:station:SCCF:53:1,2008-07-04T04:00:00Z,26.6493,-81.8810,2.07,3.72,1111122 
SCCF RECON,ioos:station:SCCF:53:1,2008-07-04T05:00:00Z,26.6493,-81.8810,2.03,3.63,1111122 
SCCF RECON,ioos:station:SCCF:53:1,2008-07-04T06:00:00Z,26.6493,-81.8810,2.0,3.86,1111122 
SCCF RECON,ioos:station:SCCF:53:1,2008-07-04T07:00:00Z,26.6493,-81.8810,2.02,3.63,1111122 
SCCF RECON,ioos:station:SCCF:53:1,2008-07-04T08:00:00Z,26.6493,-81.8810,2.06,3.59,1111122 
SCCF RECON,ioos:station:SCCF:53:1,2008-07-04T09:00:00Z,26.6493,-81.8810,2.1,3.71,1111122 
SCCF RECON,ioos:station:SCCF:53:1,2008-07-04T10:00:00Z,26.6493,-81.8810,2.13,3.56,1111122 
SCCF RECON,ioos:station:SCCF:53:1,2008-07-04T11:00:00Z,26.6493,-81.8810,2.15,3.41,1111122 
SCCF RECON,ioos:station:SCCF:53:1,2008-07-04T12:00:00Z,26.6493,-81.8810,2.14,3.2,1111122 
SCCF RECON,ioos:station:SCCF:53:1,2008-07-04T13:00:00Z,26.6493,-81.8810,2.11,3.43,1111122 
SCCF RECON,ioos:station:SCCF:53:1,2008-07-04T14:00:00Z,26.6493,-81.8810,2.08,2.97,1111122 
SCCF RECON,ioos:station:SCCF:53:1,2008-07-04T15:00:00Z,26.6493,-81.8810,2.07,3.18,1111122 
SCCF RECON,ioos:station:SCCF:53:1,2008-07-04T16:00:00Z,26.6493,-81.8810,2.12,3.28,1111122 
SCCF RECON,ioos:station:SCCF:53:1,2008-07-04T17:00:00Z,26.6493,-81.8810,2.183,3.5,1111122 
SCCF RECON,ioos:station:SCCF:53:1,2008-07-04T18:00:00Z,26.6493,-81.8810,2.235,3.92,1111122 
SCCF RECON,ioos:station:SCCF:53:1,2008-07-04T19:00:00Z,26.6493,-81.8810,2.299,3.59,1111122 
SCCF RECON,ioos:station:SCCF:53:1,2008-07-04T20:00:00Z,26.6493,-81.8810,2.36,3.83,1111122 
SCCF RECON,ioos:station:SCCF:53:1,2008-07-04T21:00:00Z,26.6493,-81.8810,2.41,4.42,1111122 
SCCF RECON,ioos:station:SCCF:53:1,2008-07-04T22:00:00Z,26.6493,-81.8810,2.422,4.71,1111122 
SCCF RECON,ioos:station:SCCF:53:1,2008-07-04T23:00:00Z,26.6493,-81.8810,2.38,4.0,1111122 
SCCF RECON,ioos:station:SCCF:53:1,2008-07-05T00:00:00Z,26.6493,-81.8810,2.33,4.33,1111122 
SCCF RECON,ioos:station:SCCF:53:1,2008-07-05T01:00:00Z,26.6493,-81.8810,2.272,3.94,1111122 
SCCF RECON,ioos:station:SCCF:53:1,2008-07-05T02:00:00Z,26.6493,-81.8810,2.22,4.26,1111122 
SCCF RECON,ioos:station:SCCF:53:1,2008-07-05T03:00:00Z,26.6493,-81.8810,2.16,3.92,1111122 
SCCF RECON,ioos:station:SCCF:53:1,2008-07-05T04:00:00Z,26.6493,-81.8810,2.108,3.62,1111122 
SCCF RECON,ioos:station:SCCF:53:1,2008-07-05T05:00:00Z,26.6493,-81.8810,2.056,3.42,1111122 
SCCF RECON,ioos:station:SCCF:53:1,2008-07-05T06:00:00Z,26.6493,-81.8810,2.03,3.23,1111122 
SCCF RECON,ioos:station:SCCF:53:1,2008-07-05T07:00:00Z,26.6493,-81.8810,2.03,3.28,1111122 
SCCF RECON,ioos:station:SCCF:53:1,2008-07-05T08:00:00Z,26.6493,-81.8810,2.08,3.09,1111122 
SCCF RECON,ioos:station:SCCF:53:1,2008-07-05T09:00:00Z,26.6493,-81.8810,2.12,3.29,1111122 
SCCF RECON,ioos:station:SCCF:53:1,2008-07-05T10:00:00Z,26.6493,-81.8810,2.16,3.45,1111122 
SCCF RECON,ioos:station:SCCF:53:1,2008-07-05T11:00:00Z,26.6493,-81.8810,2.21,3.41,1111122 
SCCF RECON,ioos:station:SCCF:53:1,2008-07-05T12:00:00Z,26.6493,-81.8810,2.21,3.36,1111122 
SCCF RECON,ioos:station:SCCF:53:1,2008-07-05T13:00:00Z,26.6493,-81.8810,2.187,3.33,1111122 
SCCF RECON,ioos:station:SCCF:53:1,2008-07-05T14:00:00Z,26.6493,-81.8810,2.15,3.27,1111122 
SCCF RECON,ioos:station:SCCF:53:1,2008-07-05T15:00:00Z,26.6493,-81.8810,2.118,3.04,1111122 
SCCF RECON,ioos:station:SCCF:53:1,2008-07-05T16:00:00Z,26.6493,-81.8810,2.106,3.45,1111122 
SCCF RECON,ioos:station:SCCF:53:1,2008-07-05T17:00:00Z,26.6493,-81.8810,2.141,3.69,1111122 
SCCF RECON,ioos:station:SCCF:53:1,2008-07-05T18:00:00Z,26.6493,-81.8810,2.2,4.43,1111122 
SCCF RECON,ioos:station:SCCF:53:1,2008-07-05T19:00:00Z,26.6493,-81.8810,2.259,5.03,1111122 
SCCF RECON,ioos:station:SCCF:53:1,2008-07-05T20:00:00Z,26.6493,-81.8810,2.323,4.42,1111122 
SCCF RECON,ioos:station:SCCF:53:1,2008-07-05T21:00:00Z,26.6493,-81.8810,2.393,4.59,1111122 
SCCF RECON,ioos:station:SCCF:53:1,2008-07-05T22:00:00Z,26.6493,-81.8810,2.432,4.6,1111122 
SCCF RECON,ioos:station:SCCF:53:1,2008-07-05T23:00:00Z,26.6493,-81.8810,2.43,4.5,1111122 
SCCF RECON,ioos:station:SCCF:53:1,2008-07-06T00:00:00Z,26.6493,-81.8810,2.391,4.85,1111122 
SCCF RECON,ioos:station:SCCF:53:1,2008-07-06T01:00:00Z,26.6493,-81.8810,2.33,4.95,1111122 
SCCF RECON,ioos:station:SCCF:53:1,2008-07-06T02:00:00Z,26.6493,-81.8810,2.27,4.98,1111122 
SCCF RECON,ioos:station:SCCF:53:1,2008-07-06T03:00:00Z,26.6493,-81.8810,2.21,4.75,1111122 
SCCF RECON,ioos:station:SCCF:53:1,2008-07-06T04:00:00Z,26.6493,-81.8810,2.16,4.63,1111122 
SCCF RECON,ioos:station:SCCF:53:1,2008-07-06T05:00:00Z,26.6493,-81.8810,2.11,4.46,1111122 
SCCF RECON,ioos:station:SCCF:53:1,2008-07-06T06:00:00Z,26.6493,-81.8810,2.05,4.14,1111122 
SCCF RECON,ioos:station:SCCF:53:1,2008-07-06T07:00:00Z,26.6493,-81.8810,2.058,3.89,1111122 
SCCF RECON,ioos:station:SCCF:53:1,2008-07-06T08:00:00Z,26.6493,-81.8810,2.091,3.67,1111122 
SCCF RECON,ioos:station:SCCF:53:1,2008-07-06T09:00:00Z,26.6493,-81.8810,2.14,3.75,1111122 
SCCF RECON,ioos:station:SCCF:53:1,2008-07-06T10:00:00Z,26.6493,-81.8810,2.2,3.86,1111122 
SCCF RECON,ioos:station:SCCF:53:1,2008-07-06T11:00:00Z,26.6493,-81.8810,2.24,3.63,1111122 
SCCF RECON,ioos:station:SCCF:53:1,2008-07-06T12:00:00Z,26.6493,-81.8810,2.26,3.37,1111122 
SCCF RECON,ioos:station:SCCF:53:1,2008-07-06T13:00:00Z,26.6493,-81.8810,2.24,2.92,1111122 
SCCF RECON,ioos:station:SCCF:53:1,2008-07-06T14:00:00Z,26.6493,-81.8810,2.21,3.01,1111122 
SCCF RECON,ioos:station:SCCF:53:1,2008-07-06T15:00:00Z,26.6493,-81.8810,2.169,3.5,1111122 
SCCF RECON,ioos:station:SCCF:53:1,2008-07-06T16:00:00Z,26.6493,-81.8810,2.131,3.1,1111122 
SCCF RECON,ioos:station:SCCF:53:1,2008-07-06T17:00:00Z,26.6493,-81.8810,2.112,4.13,1111122 
SCCF RECON,ioos:station:SCCF:53:1,2008-07-06T18:00:00Z,26.6493,-81.8810,2.15,3.73,1111122 
SCCF RECON,ioos:station:SCCF:53:1,2008-07-06T19:00:00Z,26.6493,-81.8810,2.2,3.96,1111122 
SCCF RECON,ioos:station:SCCF:53:1,2008-07-06T20:00:00Z,26.6493,-81.8810,2.287,5.14,1111122 
SCCF RECON,ioos:station:SCCF:53:1,2008-07-06T21:00:00Z,26.6493,-81.8810,2.334,4.79,1111122 
SCCF RECON,ioos:station:SCCF:53:1,2008-07-06T22:00:00Z,26.6493,-81.8810,2.378,4.4,1111122 
SCCF RECON,ioos:station:SCCF:53:1,2008-07-06T23:00:00Z,26.6493,-81.8810,2.4,4.46,1111122 
SCCF RECON,ioos:station:SCCF:53:1,2008-07-07T00:00:00Z,26.6493,-81.8810,2.37,4.15,1111122 
SCCF RECON,ioos:station:SCCF:53:1,2008-07-07T01:00:00Z,26.6493,-81.8810,2.32,4.47,1111122 
SCCF RECON,ioos:station:SCCF:53:1,2008-07-07T02:00:00Z,26.6493,-81.8810,2.27,4.57,1111122 
SCCF RECON,ioos:station:SCCF:53:1,2008-07-07T03:00:00Z,26.6493,-81.8810,2.21,3.92,1111122 
SCCF RECON,ioos:station:SCCF:53:1,2008-07-07T04:00:00Z,26.6493,-81.8810,2.16,3.33,1111122 
SCCF RECON,ioos:station:SCCF:53:1,2008-07-07T05:00:00Z,26.6493,-81.8810,2.107,3.17,1111122 
SCCF RECON,ioos:station:SCCF:53:1,2008-07-07T06:00:00Z,26.6493,-81.8810,2.054,3.31,1111122 
SCCF RECON,ioos:station:SCCF:53:1,2008-07-07T07:00:00Z,26.6493,-81.8810,2.04,3.11,1111122 
SCCF RECON,ioos:station:SCCF:53:1,2008-07-07T08:00:00Z,26.6493,-81.8810,2.08,3.2,1111122 
SCCF RECON,ioos:station:SCCF:53:1,2008-07-07T09:00:00Z,26.6493,-81.8810,2.13,3.57,1111122 
SCCF RECON,ioos:station:SCCF:53:1,2008-07-07T10:00:00Z,26.6493,-81.8810,2.182,3.81,1111122 
SCCF RECON,ioos:station:SCCF:53:1,2008-07-07T11:00:00Z,26.6493,-81.8810,2.24,3.77,1111122 
SCCF RECON,ioos:station:SCCF:53:1,2008-07-07T12:00:00Z,26.6493,-81.8810,2.281,3.78,1111122 
SCCF RECON,ioos:station:SCCF:53:1,2008-07-07T13:00:00Z,26.6493,-81.8810,2.29,3.28,1111122 
SCCF RECON,ioos:station:SCCF:53:1,2008-07-07T14:00:00Z,26.6493,-81.8810,2.25,3.72,1111122 
SCCF RECON,ioos:station:SCCF:53:1,2008-07-07T15:00:00Z,26.6493,-81.8810,2.217,2.97,1111122 
SCCF RECON,ioos:station:SCCF:53:1,2008-07-07T16:00:00Z,26.6493,-81.8810,2.175,3.13,1111122 
SCCF RECON,ioos:station:SCCF:53:1,2008-07-07T17:00:00Z,26.6493,-81.8810,2.139,3.04,1111122 
SCCF RECON,ioos:station:SCCF:53:1,2008-07-07T18:00:00Z,26.6493,-81.8810,2.112,3.46,1111122 
SCCF RECON,ioos:station:SCCF:53:1,2008-07-07T19:00:00Z,26.6493,-81.8810,2.149,4.12,1111122 
SCCF RECON,ioos:station:SCCF:53:1,2008-07-07T20:00:00Z,26.6493,-81.8810,2.246,4.04,1111122 
SCCF RECON,ioos:station:SCCF:53:1,2008-07-07T21:00:00Z,26.6493,-81.8810,2.24,3.7,1111122 
SCCF RECON,ioos:station:SCCF:53:1,2008-07-07T22:00:00Z,26.6493,-81.8810,2.3,5.89,1111122 
SCCF RECON,ioos:station:SCCF:53:1,2008-07-07T23:00:00Z,26.6493,-81.8810,2.34,3.71,1111122 
SCCF RECON,ioos:station:SCCF:53:1,2008-07-08T00:00:00Z,26.6493,-81.8810,2.358,3.7,1111122 
SCCF RECON,ioos:station:SCCF:53:1,2008-07-08T01:00:00Z,26.6493,-81.8810,2.34,3.52,1111122 
SCCF RECON,ioos:station:SCCF:53:1,2008-07-08T02:00:00Z,26.6493,-81.8810,2.29,3.94,1111122 
SCCF RECON,ioos:station:SCCF:53:1,2008-07-08T03:00:00Z,26.6493,-81.8810,2.279,3.74,1111122 
SCCF RECON,ioos:station:SCCF:53:1,2008-07-08T04:00:00Z,26.6493,-81.8810,2.229,3.54,1111122 
SCCF RECON,ioos:station:SCCF:53:1,2008-07-08T05:00:00Z,26.6493,-81.8810,2.18,3.37,1111122 
SCCF RECON,ioos:station:SCCF:53:1,2008-07-08T06:00:00Z,26.6493,-81.8810,2.11,3.01,1111122 
SCCF RECON,ioos:station:SCCF:53:1,2008-07-08T07:00:00Z,26.6493,-81.8810,2.05,2.9,1111122 
SCCF RECON,ioos:station:SCCF:53:1,2008-07-08T08:00:00Z,26.6493,-81.8810,2.07,2.91,1111122 
SCCF RECON,ioos:station:SCCF:53:1,2008-07-08T09:00:00Z,26.6493,-81.8810,2.113,3.03,1111122 
SCCF RECON,ioos:station:SCCF:53:1,2008-07-08T10:00:00Z,26.6493,-81.8810,2.17,3.01,1111122 
SCCF RECON,ioos:station:SCCF:53:1,2008-07-08T11:00:00Z,26.6493,-81.8810,2.22,3.16,1111122 
SCCF RECON,ioos:station:SCCF:53:1,2008-07-08T12:00:00Z,26.6493,-81.8810,2.27,3.12,1111122 
SCCF RECON,ioos:station:SCCF:53:1,2008-07-08T13:00:00Z,26.6493,-81.8810,2.3,3.16,1111122 
SCCF RECON,ioos:station:SCCF:53:1,2008-07-08T14:00:00Z,26.6493,-81.8810,2.29,2.52,1111122 
SCCF RECON,ioos:station:SCCF:53:1,2008-07-08T15:00:00Z,26.6493,-81.8810,2.259,2.86,1111122 
SCCF RECON,ioos:station:SCCF:53:1,2008-07-08T16:00:00Z,26.6493,-81.8810,2.21,2.43,1111122 
SCCF RECON,ioos:station:SCCF:53:1,2008-07-08T17:00:00Z,26.6493,-81.8810,2.16,2.59,1111122 
SCCF RECON,ioos:station:SCCF:53:1,2008-07-08T18:00:00Z,26.6493,-81.8810,2.12,2.65,1111122 
SCCF RECON,ioos:station:SCCF:53:1,2008-07-08T19:00:00Z,26.6493,-81.8810,2.088,2.77,1111122 
SCCF RECON,ioos:station:SCCF:53:1,2008-07-08T20:00:00Z,26.6493,-81.8810,2.122,2.7,1111122 
SCCF RECON,ioos:station:SCCF:53:1,2008-07-08T21:00:00Z,26.6493,-81.8810,2.196,2.43,1111122 
SCCF RECON,ioos:station:SCCF:53:1,2008-07-08T22:00:00Z,26.6493,-81.8810,2.23,2.63,1111122 
SCCF RECON,ioos:station:SCCF:53:1,2008-07-08T23:00:00Z,26.6493,-81.8810,2.28,2.5,1111122 
SCCF RECON,ioos:station:SCCF:53:1,2008-07-09T00:00:00Z,26.6493,-81.8810,2.32,2.02,1111122 
SCCF RECON,ioos:station:SCCF:53:1,2008-07-09T01:00:00Z,26.6493,-81.8810,2.321,2.78,1111122 
SCCF RECON,ioos:station:SCCF:53:1,2008-07-09T02:00:00Z,26.6493,-81.8810,2.304,1.82,1111122 
SCCF RECON,ioos:station:SCCF:53:1,2008-07-09T03:00:00Z,26.6493,-81.8810,2.26,2.12,1111122 
SCCF RECON,ioos:station:SCCF:53:1,2008-07-09T04:00:00Z,26.6493,-81.8810,2.22,1.76,1111122 
SCCF RECON,ioos:station:SCCF:53:1,2008-07-09T05:00:00Z,26.6493,-81.8810,2.16,1.63,1111122 
SCCF RECON,ioos:station:SCCF:53:1,2008-07-09T06:00:00Z,26.6493,-81.8810,2.12,2.19,1111122 
SCCF RECON,ioos:station:SCCF:53:1,2008-07-09T07:00:00Z,26.6493,-81.8810,2.08,2.07,1111122 
SCCF RECON,ioos:station:SCCF:53:1,2008-07-09T08:00:00Z,26.6493,-81.8810,2.08,2.4,1111122 
SCCF RECON,ioos:station:SCCF:53:1,2008-07-09T09:00:00Z,26.6493,-81.8810,2.13,2.29,1111122 
SCCF RECON,ioos:station:SCCF:53:1,2008-07-09T10:00:00Z,26.6493,-81.8810,2.18,2.8,1111122 
SCCF RECON,ioos:station:SCCF:53:1,2008-07-09T11:00:00Z,26.6493,-81.8810,2.23,2.84,1111122 
SCCF RECON,ioos:station:SCCF:53:1,2008-07-09T12:00:00Z,26.6493,-81.8810,2.283,2.71,1111122 
SCCF RECON,ioos:station:SCCF:53:1,2008-07-09T13:00:00Z,26.6493,-81.8810,2.33,2.77,1111122 
SCCF RECON,ioos:station:SCCF:53:1,2008-07-09T14:00:00Z,26.6493,-81.8810,2.34,2.09,1111122 
SCCF RECON,ioos:station:SCCF:53:1,2008-07-09T15:00:00Z,26.6493,-81.8810,2.31,1.77,1111122 
SCCF RECON,ioos:station:SCCF:53:1,2008-07-09T16:00:00Z,26.6493,-81.8810,2.269,3.04,1111122 
SCCF RECON,ioos:station:SCCF:53:1,2008-07-09T17:00:00Z,26.6493,-81.8810,2.22,1.66,1111122 
SCCF RECON,ioos:station:SCCF:53:1,2008-07-09T18:00:00Z,26.6493,-81.8810,2.17,1.73,1111122 
SCCF RECON,ioos:station:SCCF:53:1,2008-07-09T19:00:00Z,26.6493,-81.8810,2.12,2.3,1111122 
SCCF RECON,ioos:station:SCCF:53:1,2008-07-09T20:00:00Z,26.6493,-81.8810,2.08,1.46,1111122 
SCCF RECON,ioos:station:SCCF:53:1,2008-07-09T21:00:00Z,26.6493,-81.8810,2.08,2.71,1111122 
SCCF RECON,ioos:station:SCCF:53:1,2008-07-09T22:00:00Z,26.6493,-81.8810,2.115,3.73,1111122 
SCCF RECON,ioos:station:SCCF:53:1,2008-07-09T23:00:00Z,26.6493,-81.8810,2.179,3.24,1111122 
SCCF RECON,ioos:station:SCCF:53:1,2008-07-10T00:00:00Z,26.6493,-81.8810,2.23,3.53,1111122 
SCCF RECON,ioos:station:SCCF:53:1,2008-07-10T01:00:00Z,26.6493,-81.8810,2.266,3.76,1111122 
SCCF RECON,ioos:station:SCCF:53:1,2008-07-10T02:00:00Z,26.6493,-81.8810,2.27,2.76,1111122 
SCCF RECON,ioos:station:SCCF:53:1,2008-07-10T03:00:00Z,26.6493,-81.8810,2.26,2.5,1111122 
SCCF RECON,ioos:station:SCCF:53:1,2008-07-10T04:00:00Z,26.6493,-81.8810,2.222,1.89,1111122 
SCCF RECON,ioos:station:SCCF:53:1,2008-07-10T05:00:00Z,26.6493,-81.8810,2.18,1.51,1111122 
SCCF RECON,ioos:station:SCCF:53:1,2008-07-10T06:00:00Z,26.6493,-81.8810,2.158,1.5,1111122 
SCCF RECON,ioos:station:SCCF:53:1,2008-07-10T07:00:00Z,26.6493,-81.8810,2.12,1.53,1111122 
SCCF RECON,ioos:station:SCCF:53:1,2008-07-10T08:00:00Z,26.6493,-81.8810,2.11,1.48,1111122 
SCCF RECON,ioos:station:SCCF:53:1,2008-07-10T09:00:00Z,26.6493,-81.8810,2.15,1.61,1111122 
SCCF RECON,ioos:station:SCCF:53:1,2008-07-10T10:00:00Z,26.6493,-81.8810,2.193,1.8,1111122 
SCCF RECON,ioos:station:SCCF:53:1,2008-07-10T11:00:00Z,26.6493,-81.8810,2.25,1.78,1111122 
SCCF RECON,ioos:station:SCCF:53:1,2008-07-10T12:00:00Z,26.6493,-81.8810,2.31,2.16,1111122 
SCCF RECON,ioos:station:SCCF:53:1,2008-07-10T13:00:00Z,26.6493,-81.8810,2.36,2.0,1111122 
SCCF RECON,ioos:station:SCCF:53:1,2008-07-10T14:00:00Z,26.6493,-81.8810,2.4,1.97,1111122 
SCCF RECON,ioos:station:SCCF:53:1,2008-07-10T15:00:00Z,26.6493,-81.8810,2.39,1.57,1111122 
SCCF RECON,ioos:station:SCCF:53:1,2008-07-10T16:00:00Z,26.6493,-81.8810,2.35,1.71,1111122 
SCCF RECON,ioos:station:SCCF:53:1,2008-07-10T17:00:00Z,26.6493,-81.8810,2.3,1.99,1111122 
SCCF RECON,ioos:station:SCCF:53:1,2008-07-10T18:00:00Z,26.6493,-81.8810,2.243,1.44,1111122 
SCCF RECON,ioos:station:SCCF:53:1,2008-07-10T19:00:00Z,26.6493,-81.8810,2.19,1.36,1111122 
SCCF RECON,ioos:station:SCCF:53:1,2008-07-10T20:00:00Z,26.6493,-81.8810,2.14,1.56,1111122 
SCCF RECON,ioos:station:SCCF:53:1,2008-07-10T21:00:00Z,26.6493,-81.8810,2.09,1.86,1111122 
SCCF RECON,ioos:station:SCCF:53:1,2008-07-10T22:00:00Z,26.6493,-81.8810,2.09,1.55,1111122 
SCCF RECON,ioos:station:SCCF:53:1,2008-07-10T23:00:00Z,26.6493,-81.8810,2.101,1.22,1111122 
SCCF RECON,ioos:station:SCCF:53:1,2008-07-11T00:00:00Z,26.6493,-81.8810,2.14,2.53,1111122 
SCCF RECON,ioos:station:SCCF:53:1,2008-07-11T01:00:00Z,26.6493,-81.8810,2.19,3.28,1111122 
SCCF RECON,ioos:station:SCCF:53:1,2008-07-11T02:00:00Z,26.6493,-81.8810,2.229,1.99,1111122 
SCCF RECON,ioos:station:SCCF:53:1,2008-07-11T03:00:00Z,26.6493,-81.8810,2.25,2.02,1111122 
SCCF RECON,ioos:station:SCCF:53:1,2008-07-11T04:00:00Z,26.6493,-81.8810,2.27,1.18,1111122 
SCCF RECON,ioos:station:SCCF:53:1,2008-07-11T05:00:00Z,26.6493,-81.8810,2.27,0.74,1111122 
SCCF RECON,ioos:station:SCCF:53:1,2008-07-11T06:00:00Z,26.6493,-81.8810,2.25,1.13,1111122 
SCCF RECON,ioos:station:SCCF:53:1,2008-07-11T07:00:00Z,26.6493,-81.8810,2.22,0.96,1111122 
SCCF RECON,ioos:station:SCCF:53:1,2008-07-11T08:00:00Z,26.6493,-81.8810,2.2,2.52,1111122 
SCCF RECON,ioos:station:SCCF:53:1,2008-07-11T09:00:00Z,26.6493,-81.8810,2.2,2.42,1111122 
SCCF RECON,ioos:station:SCCF:53:1,2008-07-11T10:00:00Z,26.6493,-81.8810,2.23,3.34,1111122 
SCCF RECON,ioos:station:SCCF:53:1,2008-07-11T11:00:00Z,26.6493,-81.8810,2.29,3.55,1111122 
SCCF RECON,ioos:station:SCCF:53:1,2008-07-11T12:00:00Z,26.6493,-81.8810,2.34,1.73,1111122 
SCCF RECON,ioos:station:SCCF:53:1,2008-07-11T13:00:00Z,26.6493,-81.8810,2.38,1.8,1111122 
SCCF RECON,ioos:station:SCCF:53:1,2008-07-11T14:00:00Z,26.6493,-81.8810,2.42,1.89,1111122 
SCCF RECON,ioos:station:SCCF:53:1,2008-07-11T15:00:00Z,26.6493,-81.8810,2.44,2.01,1111122 
SCCF RECON,ioos:station:SCCF:53:1,2008-07-11T16:00:00Z,26.6493,-81.8810,2.42,1.97,1111122 
SCCF RECON,ioos:station:SCCF:53:1,2008-07-11T17:00:00Z,26.6493,-81.8810,2.37,1.79,1111122 
SCCF RECON,ioos:station:SCCF:53:1,2008-07-11T18:00:00Z,26.6493,-81.8810,2.31,1.88,1111122 
SCCF RECON,ioos:station:SCCF:53:1,2008-07-11T19:00:00Z,26.6493,-81.8810,2.25,1.57,1111122 
SCCF RECON,ioos:station:SCCF:53:1,2008-07-11T20:00:00Z,26.6493,-81.8810,2.191,1.74,1111122 
SCCF RECON,ioos:station:SCCF:53:1,2008-07-11T21:00:00Z,26.6493,-81.8810,2.15,1.88,1111122 